{"data":{"norad_id":68971,"intl_designator":"2026-099W","name":"STARLINK-37367","alt_names":[],"object_type":"PAYLOAD","status":"ACTIVE","operator":null,"country":"US","launch_date":"2026-05-01","launch_site_code":"AFETR","launch_vehicle":null,"mission":null,"orbit_class":"UNKNOWN","rcs_meters":null,"size_class":null,"mass_kg":null,"dimensions":null,"purposes":["comms"],"wikipedia_slug":null,"has_3d_model":false,"image_url":null,"decayed_at":null,"tle_current":{"epoch":"2026-05-25T04:00:03.998880Z","epoch_age_seconds":56566,"freshness":"FRESH","line1":"1 68971U 26099W   26145.16671295 -.01867631  00000+0 -29992-1 0  9997","line2":"2 68971  53.1595 270.3103 0001098  73.9059 101.2796 15.55832722  4851","mean_motion":15.55832722,"eccentricity":0.0001098,"inclination_deg":53.1595,"raan_deg":270.3103,"arg_perigee_deg":73.9059,"mean_anomaly_deg":101.2796,"bstar":-0.029992,"rev_number":485,"period_min":92.554937278148,"perigee_km":398.98887886557,"apogee_km":400.47729913712,"semimajor_km":6777.8700890013,"source":"CELESTRAK","updated_at":"2026-05-25T13:38:22.076625Z"}}}